COSMOS 2333

导读

COSMOS 2333是独联体(CIS)于1996年9月4日发射的卫星,归属苏联/俄罗斯沿用至今的“宇宙”系列卫星命名体系。“宇宙”系列涵盖大量军事与科研任务,涉及侦察、电子情报、反卫星技术试验、卫星检测等多种领域,多数任务细节处于保密状态,这类卫星为独联体航天技术发展与国防安全监测提供了重要支撑。

基本信息
目录编号:
24297
目录名称:
COSMOS 2333
国际标识:
1996-051A
轨道中心:
EARTH
卫星名称:
COSMOS 2333
卫星全名:
--
卫星状态:
在轨 (已飞行10958 天)
发射日期:
1996-09-04 UTC
国别 :
俄罗斯(独联体) (CIS)
星等 :
--
轨道信息
数据来源 国际轨道数据
星历时间: 2026-09-04T20:53:08+0800
18小时前
查看轨道信息
半长轴: 7224.371km
偏心率: 0.002453
轨道倾角: 70.904°
近地点辐角 198.977°
升交点赤经 167.713°
平近点角 161.044°
近地点: 828.512km
远地点: 863.956km
周期: 101.850分钟
每日圈数: 14.138481
详细信息
使用方式:
暂无
2D轨道图
3D轨道图
轨道高度分析图
轨道倾角分析图
轨道综合分析图
查看轨道综合分析图
交会数据列表
事件ID 空间交会对象 最接近时刻(TCA) 交会距离 交会风险概率(CRP) 交会风险指数(CRI) 操作
CDM_260907-045502-429704-135722
2026-09-07T
04:55:11+0000
0.618 km
远距离
9.077403E-5 中风险 0.74
CDM_260906-192102-429706-980422
2026-09-06T
19:21:02+0000
2.652 km
极远距离
1.573144E-6 低风险 0.39